Location: G�ndlingen
(48.0142°N, 7.6396°E)
Time: 08:29:17
(UTC+00:00)

Cosmos 1500 Rocket - Pass Details

Date: 05 July 2020
Orbit: 602 x 632 km, 82.5° (Epoch: 04 August)

Event Time Altitude Azimuth Distance (km) Brightness Sun altitude
Exits shadow 23:44:48 45° 168° (SSE) 854 3.8 -19.3°
Maximum altitude 23:46:04 73° 97° (E) 654 3.6 -19.3°
Drops below altitude 10° 23:50:28 10° 13° (NNE) 1,991 7.4 -19.2°
Sets 23:52:42 0° 12° (NNE) 2,896 8.6 -19.2°
